• In Romania
  • List of Countries
  • For 7 days
  • Water Temperature
  • Satellite Maps
  • Weather Map
  • Weather Widgets
  • user-avatar
    Login

    Hourly Weather Kipungo

    Today, 23 June, Friday

    Time Temperature Precipitation Wind Pressure Humidity
    00:00 +12°C° 0 mm 2 mps 654 mmHg 45%
    01:00 +10°C° 0 mm 2 mps 654 mmHg 48%
    02:00 +10°C° 0 mm 1 mps 653 mmHg 51%
    03:00 +10°C° 0 mm 1 mps 653 mmHg 53%
    04:00 +9°C° 0 mm 1 mps 653 mmHg 55%
    05:00 +9°C° 0 mm 1 mps 653 mmHg 54%
    06:00 +10°C° 0 mm 1 mps 654 mmHg 54%
    07:00 +10°C° 0 mm 1 mps 654 mmHg 53%
    08:00 +14°C° 0 mm 2 mps 655 mmHg 43%
    09:00 +17°C° 0 mm 3 mps 656 mmHg 34%
    10:00 +21°C° 0 mm 4 mps 657 mmHg 24%
    11:00 +24°C° 0 mm 3 mps 656 mmHg 22%
    12:00 +26°C° 0 mm 3 mps 656 mmHg 19%
    13:00 +28°C° 0 mm 3 mps 656 mmHg 16%
    14:00 +28°C° 0 mm 2 mps 655 mmHg 16%
    15:00 +28°C° 0 mm 2 mps 655 mmHg 16%
    16:00 +28°C° 0 mm 2 mps 654 mmHg 15%
    17:00 +24°C° 0 mm 2 mps 654 mmHg 21%
    18:00 +19°C° 0 mm 2 mps 653 mmHg 27%
    19:00 +16°C° 0 mm 2 mps 652 mmHg 32%
    20:00 +15°C° 0 mm 2 mps 653 mmHg 34%
    21:00 +14°C° 0 mm 2 mps 653 mmHg 36%
    22:00 +13°C° 0 mm 2 mps 653 mmHg 38%
    23:00 +13°C° 0 mm 2 mps 653 mmHg 41%

    Tomorrow, 24 June, Saturday

    Time Temperature Precipitation Wind Pressure Humidity
    00:00 +12°C° 0 mm 2 mps 653 mmHg 44%
    01:00 +11°C° 0 mm 1 mps 652 mmHg 48%
    02:00 +11°C° 0 mm 1 mps 652 mmHg 50%
    03:00 +10°C° 0 mm 1 mps 652 mmHg 53%
    04:00 +10°C° 0 mm 1 mps 652 mmHg 55%
    05:00 +9°C° 0 mm 2 mps 652 mmHg 56%
    06:00 +9°C° 0 mm 2 mps 653 mmHg 56%
    07:00 +9°C° 0 mm 2 mps 653 mmHg 57%
    08:00 +13°C° 0 mm 3 mps 654 mmHg 47%
    09:00 +18°C° 0 mm 3 mps 655 mmHg 37%
    10:00 +22°C° 0 mm 4 mps 656 mmHg 27%
    11:00 +25°C° 0 mm 4 mps 656 mmHg 24%
    12:00 +27°C° 0 mm 3 mps 656 mmHg 21%
    13:00 +29°C° 0 mm 3 mps 655 mmHg 18%
    14:00 +29°C° 0 mm 2 mps 655 mmHg 17%
    15:00 +29°C° 0 mm 2 mps 654 mmHg 17%
    16:00 +29°C° 0 mm 1 mps 654 mmHg 16%
    17:00 +25°C° 0 mm 1 mps 653 mmHg 28%
    18:00 +20°C° 0 mm 1 mps 652 mmHg 39%
    19:00 +15°C° 0 mm 1 mps 651 mmHg 51%
    20:00 +14°C° 0 mm 1 mps 651 mmHg 54%
    21:00 +13°C° 0 mm 1 mps 651 mmHg 56%
    22:00 +11°C° 0 mm 0 mps 652 mmHg 59%
    23:00 +12°C° 0 mm 1 mps 651 mmHg 56%

    Day after tomorrow, 25 June, Sunday

    Time Temperature Precipitation Wind Pressure Humidity
    00:00 +12°C° 0 mm 1 mps 651 mmHg 54%
    01:00 +11°C° 0 mm 1 mps 651 mmHg 51%
    02:00 +11°C° 0 mm 1 mps 651 mmHg 53%
    03:00 +10°C° 0 mm 1 mps 651 mmHg 56%
    04:00 +10°C° 0 mm 1 mps 650 mmHg 58%
    05:00 +10°C° 0 mm 1 mps 651 mmHg 55%
    06:00 +11°C° 0 mm 1 mps 651 mmHg 53%
    07:00 +11°C° 0 mm 1 mps 652 mmHg 51%
    08:00 +15°C° 0 mm 2 mps 653 mmHg 42%
    09:00 +20°C° 0 mm 3 mps 654 mmHg 32%
    10:00 +25°C° 0 mm 3 mps 655 mmHg 23%
    11:00 +27°C° 0 mm 3 mps 655 mmHg 21%
    12:00 +29°C° 0 mm 3 mps 655 mmHg 18%
    13:00 +31°C° 0 mm 3 mps 654 mmHg 15%
    14:00 +31°C° 0 mm 3 mps 654 mmHg 15%
    15:00 +31°C° 0 mm 3 mps 653 mmHg 15%
    16:00 +31°C° 0 mm 3 mps 653 mmHg 14%
    17:00 +27°C° 0 mm 3 mps 652 mmHg 20%
    18:00 +23°C° 0 mm 2 mps 652 mmHg 26%
    19:00 +18°C° 0 mm 2 mps 651 mmHg 32%
    20:00 +17°C° 0 mm 2 mps 651 mmHg 34%
    21:00 +16°C° 0 mm 2 mps 652 mmHg 37%
    22:00 +16°C° 0 mm 2 mps 652 mmHg 39%
    23:00 +14°C° 0 mm 1 mps 651 mmHg 44%

    26 June, Monday

    Time Temperature Precipitation Wind Pressure Humidity
    00:00 +13°C° 0 mm 1 mps 651 mmHg 48%
    01:00 +12°C° 0 mm 1 mps 650 mmHg 52%
    02:00 +11°C° 0 mm 1 mps 650 mmHg 54%
    03:00 +10°C° 0 mm 0 mps 650 mmHg 56%
    04:00 +9°C° 0 mm 0 mps 649 mmHg 58%
    05:00 +10°C° 0 mm 0 mps 650 mmHg 57%
    06:00 +10°C° 0 mm 0 mps 651 mmHg 56%
    07:00 +11°C° 0 mm 0 mps 651 mmHg 56%
    08:00 +18°C° 0 mm 1 mps 653 mmHg 44%
    09:00 +23°C° 0 mm 1 mps 654 mmHg 32%
    10:00 +28°C° 0 mm 1 mps 656 mmHg 20%
    11:00 +29°C° 0 mm 2 mps 655 mmHg 18%
    12:00 +30°C° 0 mm 2 mps 655 mmHg 17%
    13:00 +32°C° 0 mm 2 mps 654 mmHg 16%
    14:00 +31°C° 0 mm 2 mps 654 mmHg 15%
    15:00 +31°C° 0 mm 2 mps 654 mmHg 15%
    16:00 +31°C° 0 mm 3 mps 653 mmHg 15%
    17:00 +27°C° 0 mm 2 mps 653 mmHg 21%
    18:00 +24°C° 0 mm 2 mps 653 mmHg 27%
    19:00 +19°C° 0 mm 2 mps 652 mmHg 33%
    20:00 +18°C° 0 mm 2 mps 652 mmHg 35%
    21:00 +17°C° 0 mm 2 mps 653 mmHg 37%
    22:00 +16°C° 0 mm 2 mps 653 mmHg 39%
    23:00 +15°C° 0 mm 2 mps 653 mmHg 43%

    27 June, Tuesday

    Time Temperature Precipitation Wind Pressure Humidity
    00:00 +14°C° 0 mm 1 mps 652 mmHg 47%
    01:00 +13°C° 0 mm 1 mps 652 mmHg 50%
    02:00 +12°C° 0 mm 1 mps 652 mmHg 53%
    03:00 +12°C° 0 mm 1 mps 651 mmHg 56%
    04:00 +11°C° 0 mm 1 mps 651 mmHg 59%
    05:00 +11°C° 0 mm 1 mps 652 mmHg 58%
    06:00 +12°C° 0 mm 1 mps 652 mmHg 56%
    07:00 +12°C° 0 mm 1 mps 653 mmHg 55%
    08:00 +18°C° 0 mm 1 mps 654 mmHg 44%
    09:00 +23°C° 0 mm 1 mps 656 mmHg 32%
    10:00 +28°C° 0 mm 1 mps 657 mmHg 21%
    11:00 +30°C° 0 mm 1 mps 657 mmHg 19%
    12:00 +32°C° 0 mm 1 mps 657 mmHg 17%
    13:00 +34°C° 0 mm 1 mps 657 mmHg 15%
    14:00 +33°C° 0 mm 1 mps 656 mmHg 15%
    15:00 +32°C° 0 mm 1 mps 655 mmHg 15%
    16:00 +31°C° 0 mm 1 mps 655 mmHg 15%
    17:00 +27°C° 0 mm 1 mps 654 mmHg 22%
    18:00 +23°C° 0 mm 1 mps 654 mmHg 28%
    19:00 +18°C° 0 mm 1 mps 653 mmHg 35%
    20:00 +18°C° 0 mm 1 mps 653 mmHg 34%
    21:00 +17°C° 0 mm 2 mps 654 mmHg 32%
    22:00 +17°C° 0 mm 2 mps 654 mmHg 31%
    23:00 +16°C° 0 mm 2 mps 654 mmHg 32%

    28 June, Wednesday

    Time Temperature Precipitation Wind Pressure Humidity
    00:00 +15°C° 0 mm 2 mps 653 mmHg 33%
    01:00 +15°C° 0 mm 2 mps 653 mmHg 33%
    02:00 +14°C° 0 mm 1 mps 653 mmHg 36%
    03:00 +13°C° 0 mm 1 mps 652 mmHg 39%
    04:00 +12°C° 0 mm 1 mps 652 mmHg 42%
    05:00 +12°C° 0 mm 1 mps 652 mmHg 43%
    06:00 +11°C° 0 mm 0 mps 653 mmHg 44%
    07:00 +11°C° 0 mm 0 mps 653 mmHg 45%
    08:00 +18°C° 0 mm 1 mps 654 mmHg 35%
    09:00 +23°C° 0 mm 1 mps 656 mmHg 25%
    10:00 +28°C° 0 mm 2 mps 657 mmHg 14%
    11:00 +30°C° 0 mm 1 mps 657 mmHg 13%
    12:00 +32°C° 0 mm 1 mps 657 mmHg 13%
    13:00 +34°C° 0 mm 1 mps 657 mmHg 12%
    14:00 +33°C° 0 mm 1 mps 656 mmHg 12%
    15:00 +32°C° 0 mm 1 mps 655 mmHg 12%
    16:00 +32°C° 0 mm 1 mps 655 mmHg 12%
    17:00 +27°C° 0 mm 1 mps 654 mmHg 17%
    18:00 +23°C° 0 mm 1 mps 653 mmHg 22%
    19:00 +19°C° 0 mm 1 mps 653 mmHg 27%
    20:00 +18°C° 0 mm 2 mps 653 mmHg 26%
    21:00 +17°C° 0 mm 2 mps 653 mmHg 26%
    22:00 +17°C° 0 mm 2 mps 653 mmHg 25%
    23:00 +16°C° 0 mm 2 mps 653 mmHg 26%
    Show more